Location: Hilde
(52.9479°N, 6.4449°E)
Time: 11:12:41
(UTC+00:00)

YAOGAN 11 - Pass Details

Date: 15 May 2026
Orbit: 599 x 646 km, 98.4° (Epoch: 8 June)

Event Time Altitude Azimuth Distance (km) Brightness Sun altitude
Rises 20:44:46 0° 14° (NNE) 2,943 8.1 -9.6°
Reaches altitude 10° 20:46:57 10° 14° (NNE) 2,037 7.3 -9.8°
Maximum altitude 20:51:24 82° 287° (WNW) 655 4.2 -10.2°
Drops below altitude 10° 20:55:52 10° 200° (SSW) 2,040 6.4 -10.6°
Sets 20:58:04 0° 200° (SSW) 2,948 7.2 -10.8°
